STARLINK-31585 (59608 NORAD) Tracking and Keplerian Element Data

This shows tracking and keplerian element data for the satellite.

Feedback or suggestion? Click here.




ElementValue
Catalog59608
NameSTARLINK-31585
Epoch Orbit750
Epoch Day160.1558476
Epoch Year2024
RAAN87.7906
Inclination43
Eccentricity0.0001631
Argument of Perigee272.8059
Mean Anonmoly87.261
Mean Motion15.40716584
Decay Rate8.477E-05
L11 59608U 24080H 24160.15584760 .00008477 00000+0 20985-3 0 9993
L22 59608 43.0000 87.7906 0001631 272.8059 87.2610 15.40716584 7505



Live tracking and technical data element details for STARLINK-31585 (NORAD 59608). STARLINK-31585 can be tracked NOW for your location showing map with azimuth and elevation plus other details from your city location.







IsCatalogInMostPopularTable: catalog: 59608, numindb: 11
Update: records affected: 1



GetName: 59608 STARLINK-31585

Hit Count: updated at: Fri, 14 Jun 2024 19:08:13 GMT